Location: Bodorgan Station
(53.2000°N, 4.4167°W)
Time: 19:00:48
(UTC+00:00)

Daily predictions for brighter satellites

Satellite Brightness Start Highest point End
(mag) Time Altitude Azimuth Time Altitude Azimuth Time Altitude Azimuth
Lacrosse 5 2.0 17:24:50 10° WSW 17:29:55 73° NNW 17:35:00 10° ENE
Cosmos 2056 Rocket 4.3 17:25:26 10° SW 17:30:28 52° WNW 17:35:30 10° NNE
YAOGAN 6 2.9 17:27:02 10° S 17:30:41 78° WSW 17:34:25 10° NNW
CZ-4 R/B 2.6 17:28:05 10° ESE 17:30:56 20° ENE 17:33:47 10° NNE
CZ-4B R/B 3.4 17:26:08 10° SSE 17:31:45 84° WSW 17:37:18 10° NNW
Cosmos 1400 Rocket 4.4 17:29:19 10° SE 17:31:49 16° E 17:34:19 10° NE
ADEOS Rocket 3.2 17:25:39 10° NNE 17:31:55 78° ESE 17:38:54 10° SSW
Cosmos 1356 Rocket 3.5 17:27:44 10° S 17:32:00 78° E 17:36:20 10° NNE
ERBS 2.6 17:30:49 10° W 17:34:08 59° NNW 17:37:27 10° ENE
Meteor 1-16 Rocket 4.2 17:33:28 10° S 17:39:05 82° E 17:44:34 10° NNE
USA 281 3.6 17:33:49 10° SSE 17:40:22 71° WSW 17:46:57 10° NNW
Cosmos 1908 3.2 17:37:01 10° S 17:40:51 77° E 17:44:45 10° NNE
Cosmos 2227 Rocket 2.5 17:35:42 10° NNW 17:41:08 45° NE 17:46:34 10° ESE
H-2A R/B 4.2 17:37:17 10° S 17:41:32 42° W 17:45:51 10° NNW
Cosmos 1656 Rocket 4.0 17:37:13 10° SW 17:42:48 72° NW 17:48:30 10° NNE
NOSS 2-1 (E) 3.5 17:40:48 10° WSW 17:44:08 58° NW 17:48:02 10° NE
Cosmos 1892 3.9 17:41:21 10° NNE 17:44:25 22° ENE 17:47:29 10° ESE
Cosmos 1452 Rocket 3.6 17:41:25 10° SSW 17:46:42 90° NW 17:52:02 10° NNE
CZ-4B R/B 1.7 17:43:47 10° NNE 17:46:55 42° E 17:49:58 10° S
USA 305 2.9 17:42:35 10° W 17:46:55 83° N 17:51:11 10° E
Cosmos 2263 Rocket 3.8 17:43:52 10° NNW 17:47:50 19° NNE 17:51:44 10° ENE
COSMO-SKYMED 1 3.4 17:45:00 10° NE 17:48:47 28° E 17:52:33 10° SSE
CSL-04 DEB 4.4 17:45:06 10° NNE 17:49:05 88° WNW 17:53:00 10° SSW
SL-4 R/B 1.8 17:48:35 10° WSW 17:52:04 66° S 17:55:22 13° E
H-2A R/B 2.4 17:48:31 10° NNE 17:52:42 68° WNW 17:56:48 10° SSW
USA 306 2.9 17:48:57 10° W 17:53:16 85° N 17:57:16 12° E
Timation 2 Rocket 4.2 17:47:36 10° NW 17:54:11 88° NE 18:01:00 10° SSE
GEOS 3 Rocket 3.9 17:49:53 10° ESE 17:55:06 56° NE 18:00:24 10° NW
Cosmos 1346 Rocket 4.0 17:52:09 10° N 17:55:23 23° ENE 17:58:37 10° ESE
Cosmos 1953 3.6 17:52:25 10° SSW 17:56:13 44° WNW 18:00:04 10° N
SMAP 3.9 17:52:28 10° S 17:57:03 57° W 18:01:41 10° NNW
Cosmos 1408 3.9 17:56:00 10° NNE 17:58:45 20° ENE 18:01:18 11° ESE
H-2A R/B 2.9 17:55:06 10° ESE 17:59:48 31° ENE 18:04:33 10° N
Cosmos 1825 Rocket 3.7 17:55:22 10° NNW 17:59:51 82° W 18:04:17 10° S
Cosmos 1300 3.0 17:56:20 10° SSE 17:59:56 43° E 18:03:36 10° NNE
CZ-2D R/B 3.5 17:56:55 10° SE 18:00:32 43° ENE 18:04:11 10° N
Okean O Rocket 2.7 17:57:57 10° S 18:02:12 50° W 18:06:27 10° NNW
Cosmos 1697 Rocket 4.2 18:00:39 10° SE 18:03:27 14° E 18:04:15 14° E
YAOGAN 1 3.0 18:04:02 10° SE 18:08:04 39° ENE 18:12:07 10° N
Cosmos 1825 3.6 18:05:37 10° NNE 18:08:20 18° ENE 18:09:07 17° E
NOAA 11 4.4 18:06:36 10° S 18:12:03 76° WSW 18:17:31 10° NNW
IRS-1C Rocket 4.1 18:10:24 10° SSE 18:15:41 86° ENE 18:21:01 10° NNW
ERS-2 2.3 18:15:42 10° NNE 18:19:20 74° WNW 18:22:58 10° SSW
Cosmos 1726 Rocket 3.5 18:15:08 10° S 18:19:27 70° E 18:23:51 10° NNE
Cosmos 1689 Rocket 2.3 18:16:40 10° NNE 18:19:27 41° E 18:22:12 10° S
Cosmos 2297 Rocket 2.2 18:15:40 10° NNW 18:21:23 88° NE 18:27:05 10° SSE
Cosmos 1553 Rocket 4.3 18:15:25 10° SSE 18:21:24 46° E 18:27:20 10° NNE
Cosmos 1340 2.5 18:18:09 10° N 18:21:56 70° ENE 18:25:42 10° SSE
NOSS 3-4 (A) 4.2 18:15:54 10° NW 18:22:15 47° NNE 18:27:19 19° E
NOSS 3-4 (C) 4.2 18:16:00 10° NW 18:22:20 47° NNE 18:27:24 19° E
Cosmos 2369 Rocket 3.8 18:17:58 10° WSW 18:23:00 31° NW 18:28:05 10° NNE
SAR-Lupe-4 3.4 18:19:27 10° NNE 18:23:03 71° ESE 18:26:38 10° S
In-Cosmos 22 Rocket 4.0 18:19:04 10° N 18:24:25 72° ENE 18:29:50 10° SSE
Cosmos 1331 Rocket 3.9 18:20:37 10° SSW 18:25:47 81° ESE 18:30:58 10° NNE
Cosmos 2228 3.2 18:26:00 10° SSW 18:30:14 72° WNW 18:34:33 10° N
SeaSat 1 2.7 18:29:14 17° ESE 18:32:45 49° NE 18:37:31 10° NNW
CSL-04 Debris 4.3 18:27:53 10° SE 18:33:10 55° ENE 18:38:32 10° N
Okean-O 2.5 18:29:23 10° SSE 18:33:48 82° ENE 18:38:16 10° NNW
Cosmos 1818 4.5 18:28:57 10° WSW 18:34:11 46° NW 18:39:20 11° NE
Cosmos 1606 Rocket 3.9 18:30:22 10° SSW 18:34:43 70° WNW 18:39:09 10° N
USA 307 2.9 18:31:30 10° WNW 18:35:49 78° SSW 18:38:09 26° ESE
SKYMED 2 3.5 18:32:43 10° NNE 18:37:06 76° ESE 18:41:26 10° S
USA 215 3.3 18:36:03 21° E 18:40:35 72° NNE 18:47:06 10° WNW
USA 308 3.0 18:36:18 10° WNW 18:40:36 76° SSW 18:42:46 28° ESE
SAR-Lupe-1 4.1 18:37:22 10° NNE 18:40:58 80° WNW 18:44:33 10° SSW
SL-08 R/B 4.4 18:35:03 10° N 18:41:17 83° E 18:47:26 10° SSE
Cosmos 968 Rocket 3.4 18:37:24 10° NNW 18:42:41 87° ENE 18:47:52 10° SSE
Cosmos 1745 Rocket 4.0 18:36:42 10° N 18:42:57 66° ENE 18:49:15 10° SSE
Geosat FO 4.5 18:41:21 21° SE 18:43:41 76° NE 18:47:11 10° NNW
Cosmos 1939 Rocket 3.7 18:39:48 10° S 18:43:41 51° W 18:47:31 10° NNW
ATLAS 2AS CENTAUR R/B 3.3 18:36:56 10° NW 18:44:28 50° NNE 18:48:34 25° E
Helios 1A Rocket 3.2 18:41:56 10° S 18:46:03 68° WSW 18:50:09 10° NNW
HJ-1C 3.6 18:46:16 44° E 18:46:38 47° ENE 18:49:54 10° N
Cosmos 2151 4.1 18:44:15 10° N 18:47:11 26° NE 18:47:11 26° NE
Cosmos 2219 3.8 18:44:23 10° NW 18:50:04 60° WSW 18:55:43 10° SSE
Meteor 2-15 4.5 18:44:15 10° S 18:50:15 56° E 18:56:14 10° NNE
Aureole 3 2.6 18:48:12 10° SSW 18:51:17 83° W 18:54:17 10° N
CZ-4C R/B 3.4 18:47:25 10° NW 18:53:25 40° NNE 18:57:03 25° ENE
Cosmos 1110 Rocket 4.5 18:48:23 10° SW 18:53:34 61° WNW 18:58:46 10° NNE
Cosmos 1302 Rocket 3.9 18:50:42 10° SSW 18:55:58 78° ESE 19:01:18 10° NNE
PSLV R/B 3.9 18:52:31 10° NNE 18:56:45 85° WNW 19:00:55 10° SSW
MOS 1 Rocket 3.5 18:52:34 10° NNE 18:57:00 45° E 19:01:40 10° S
SJ-11-01 4.1 18:53:00 10° SSE 18:57:39 75° ENE 19:02:21 10° NNW
Cosmos 44 3.1 18:53:50 10° SW 18:58:24 83° SE 19:01:00 27° NE
Cosmos 1386 Rocket 4.5 18:52:07 10° N 18:58:34 79° E 19:04:56 10° SSE
Cosmos 1486 Rocket 4.3 18:53:14 10° NNW 18:58:35 72° WSW 19:03:52 10° SSE
Cosmos 2082 3.6 18:53:48 10° NNW 18:59:35 83° ENE 19:03:45 20° SE
CZ-2C R/B 3.3 18:54:20 10° SSE 19:00:09 82° WSW 19:05:49 10° NNW
SJ-6B 4.4 19:01:54 23° NNE 19:01:54 23° NNE 19:04:06 10° N
Cosmos 1943 Rocket 4.4 18:57:27 10° WNW 19:01:06 18° NNW 19:04:46 10° NNE
Cosmos 2058 2.8 18:57:45 10° N 19:01:54 89° E 19:05:59 10° S
FALCON 9 DEB 2.9 18:59:42 10° W 19:03:09 80° S 19:03:22 73° SE
Cosmos 2278 Rocket 4.4 19:02:38 10° NNW 19:05:08 13° N 19:07:39 10° NNE
CZ-4 R/B 2.1 19:01:52 10° S 19:05:41 52° W 19:09:29 10° NNW
Cosmos 2058 Rocket 3.4 19:01:29 10° SSW 19:05:57 67° WNW 19:10:29 10° N
Aureole 3 Rocket 3.6 19:02:23 10° SSW 19:06:29 70° WNW 19:12:16 10° N
Cosmos 1400 Rocket 3.2 19:03:44 10° SSW 19:07:49 65° WNW 19:11:54 10° N
Cosmos 1503 Rocket 3.9 19:02:59 10° NNW 19:08:14 86° ENE 19:11:33 23° SSE
Meteor 2-10 Rocket 3.4 19:04:52 10° S 19:10:07 67° E 19:15:13 10° NNE
ERBS 3.1 19:07:31 10° WNW 19:10:39 42° N 19:10:39 42° N
ATLAS 5 CENTAUR R/B 3.4 19:07:19 10° WNW 19:11:17 27° N 19:13:42 19° NNE
DMSP B5D1-3 4.4 19:07:21 10° NNE 19:12:29 65° ESE 19:17:36 10° S
Cosmos 1709 Rocket 4.0 19:06:31 10° N 19:12:52 64° ENE 19:17:52 17° SSE
Lacrosse 5 2.2 19:08:20 10° WNW 19:13:20 56° N 19:14:46 41° NE
Timation 1 Rocket 4.3 19:07:34 10° NNW 19:13:38 76° NE 19:16:23 34° SE
BREEZE-M R/B 4.0 19:09:53 10° W 19:13:59 59° S 19:16:54 34° ESE
Cosmos 2369 4.2 19:10:23 10° S 19:14:49 37° SE 19:14:49 37° SE
ARGOS 3.0 19:13:21 16° SSE 19:17:46 82° ENE 19:23:14 10° NNW
FALCON 9 DEB 4.5 19:15:25 10° SW 19:17:21 29° SSW 19:17:21 29° SSW
CZ-4B R/B 4.3 19:16:40 10° NNW 19:18:54 17° WNW 19:21:05 10° WSW
Cosmos 1354 Rocket 3.9 19:13:53 10° NNW 19:19:11 89° WSW 19:21:46 31° SSE
Cosmos 1892 3.9 19:16:37 10° NNW 19:20:18 42° W 19:23:59 10° SSW
Cosmos 1844 Rocket 4.2 19:17:32 10° NNW 19:21:43 20° NNE 19:22:09 20° NE
COSMO-SKYMED 1 3.8 19:20:59 10° N 19:25:05 41° WNW 19:29:09 10° SW
Cosmos 2227 Rocket 3.3 19:19:54 10° NW 19:25:13 43° WSW 19:30:32 10° S
Cosmos 1656 3.5 19:20:14 10° SSW 19:25:49 85° ESE 19:29:34 22° NNE
USA 305 3.4 19:22:40 10° WNW 19:26:50 49° SSW 19:27:20 46° S
SJ 16-02 3.4 19:24:49 10° N 19:26:22 16° NNE 19:26:22 16° NNE
SL-4 R/B 2.4 19:27:55 10° W 19:30:57 51° SW 19:30:57 51° SW
Cosmos 1346 Rocket 3.9 19:28:09 10° NNW 19:31:57 43° W 19:35:21 12° SSW
Meteor 2-1 Rocket 4.0 19:26:41 10° S 19:32:12 86° E 19:37:47 10° NNE
Cosmos 883 Rocket 4.3 19:26:49 10° S 19:32:54 66° E 19:38:59 10° NNE
Cosmos 2263 Rocket 2.3 19:27:32 10° NNW 19:33:08 52° NE 19:33:26 52° ENE
USA 306 3.5 19:29:02 10° WNW 19:33:09 46° SSW 19:33:25 45° SSW
Cosmos 2315 Rocket 3.9 19:27:45 10° S 19:33:47 57° E 19:39:51 10° NNE
Cosmos 1076 Rocket 3.9 19:29:38 10° NNW 19:33:51 62° W 19:35:41 32° SSW
Cosmos 1408 3.8 19:30:30 10° NNW 19:33:58 42° W 19:35:41 24° SSW
CSL-04 Rocket 4.2 19:28:46 10° S 19:34:15 61° WSW 19:39:44 10° NNW
EO 1 Delta rocket 4.3 19:30:04 10° NNE 19:34:03 47° NE 19:34:03 47° NE
Resurs 01 Rocket 3.8 19:38:27 15° NNE 19:38:27 15° NNE 19:39:25 10° N
Cosmos 1992 Rocket 3.8 19:31:02 10° SSW 19:36:13 72° ESE 19:36:36 69° ENE
S3M 4.0 19:30:17 10° SSW 19:36:24 81° W 19:42:37 10° N
Meteor 2-17 Rocket 4.5 19:32:25 10° N 19:38:21 54° ENE 19:38:21 54° ENE
H-2A R/B 2.7 19:33:38 10° S 19:38:58 57° W 19:44:22 10° NNW
Cosmos 1825 3.0 19:40:27 10° NNW 19:43:57 50° W 19:43:57 50° W
YAOGAN 1 4.5 19:40:28 10° SSW 19:44:16 29° W 19:48:05 10° NNW
Geosat 3.9 19:43:37 60° NE 19:44:35 89° ESE 19:49:38 10° SSW
Ariane Rocket 2.9 19:44:55 75° NE 19:44:55 75° NE 19:49:56 10° NNW
Cosmos 1697 Rocket 2.6 19:40:50 10° SSW 19:46:04 69° SE 19:46:04 69° SE
COSMOS 2455 4.2 19:45:40 10° NW 19:50:41 26° NNE 19:51:18 25° NNE
IRS-1A Rocket 4.1 19:53:18 74° SSE 19:53:52 87° ENE 19:59:25 10° NNW
MOS 1 4.1 20:02:28 83° S 20:02:41 89° WSW 20:08:24 10° NNW
SL-08 RB Rocket 4.4 20:06:54 51° W 20:06:54 51° W 20:11:04 10° NNW
SeaSat 1 3.7 20:09:02 31° SSW 20:10:24 37° WSW 20:15:00 10° NW
NOSS 3-4 (A) 3.8 20:06:51 10° NW 20:13:42 77° SW 20:14:46 65° SSE
NOSS 3-4 (C) 3.8 20:06:58 10° NW 20:13:48 78° SW 20:14:51 66° SSE
Cosmos 2227 4.4 20:11:25 10° NNW 20:16:20 68° NW 20:16:20 68° NW
DEBRIS 4.5 20:09:52 10° WSW 20:21:47 53° SSW 20:21:47 53° SSW
USA 215 3.3 20:23:24 67° SSW 20:23:42 68° SSW 20:30:14 10° WNW
Meteor 2-3 Rocket 4.0 20:19:40 10° NNW 20:24:42 65° NW 20:24:42 65° NW
NOSS 3-3 (A) 4.3 20:19:48 10° SW 20:24:23 57° SW 20:24:23 57° SW
NOSS 3-3 (C) 4.3 20:19:54 10° SW 20:24:30 57° SW 20:24:30 57° SW
ATLAS 2AS CENTAUR R/B 2.8 20:28:21 10° NW 20:35:57 73° SW 20:36:01 73° SW
CZ-4C R/B 2.9 20:36:01 10° NW 20:42:14 74° NNW 20:42:14 74° NNW
Cosmos 2278 Rocket 4.3 20:47:21 10° NNW 20:49:50 18° N 20:49:50 18° N
Lacrosse 5 3.7 20:51:34 10° WNW 20:53:58 28° WNW 20:53:58 28° WNW
ATLAS 5 CENTAUR R/B 3.9 20:52:48 10° NW 20:55:14 24° NNW 20:55:14 24° NNW
Cosmos 1844 Rocket 4.4 21:01:11 10° NNW 21:03:49 28° NNW 21:03:49 28° NNW
SJ 16-02 4.2 21:02:47 10° NNW 21:03:21 13° NNW 21:03:21 13° NNW
Cosmos 2263 Rocket 3.9 21:11:45 10° NW 21:15:08 30° WNW 21:15:08 30° WNW
